This is the latest recevied weather packets stored in our database for station/object DOUGLAS. If no packets are shown the sender has not sent any weather packets the latest 10 day(s).
| Time | Temp. | Humidity | Pressure | Rain* | Wind** | Luminosity | Snow |
|---|---|---|---|---|---|---|---|
| 1777242603 | 15° C | 58% | 0 hPa | - | - | - | - |
| 1777242003 | 15° C | 53% | 0 hPa | - | - | - | - |
| 1777241402 | 15° C | 54% | 0 hPa | - | - | - | - |
| 1777240803 | 15.56° C | 45% | 0 hPa | - | - | - | - |
| 1777240203 | 15° C | 38% | 0 hPa | - | - | - | - |
| 1777239603 | 15.56° C | 44% | 0 hPa | - | - | - | - |
| 1777239004 | 16.11° C | 46% | 0 hPa | - | - | - | - |
| 1777238403 | 15.56° C | 44% | 0 hPa | - | - | - | - |
| 1777237802 | 16.67° C | 32% | 0 hPa | - | - | - | - |
| 1777237203 | 16.11° C | 31% | 0 hPa | - | - | - | - |
| 1777236603 | 16.11° C | 33% | 0 hPa | - | - | - | - |
| 1777236003 | 16.11° C | 37% | 0 hPa | - | - | - | - |
| 1777235403 | 16.67° C | 35% | 0 hPa | - | - | - | - |
| 1777234803 | 15.56° C | 37% | 0 hPa | - | - | - | - |
| 1777234202 | 15° C | 40% | 0 hPa | - | - | - | - |
| 1777233603 | 15° C | 49% | 0 hPa | - | - | - | - |
| 1777233003 | 15° C | 54% | 0 hPa | - | - | - | - |
| 1777232403 | 15° C | 56% | 0 hPa | - | - | - | - |
| 1777231803 | 16.11° C | 45% | 0 hPa | - | - | - | - |
| 1777231203 | 15.56° C | 40% | 0 hPa | - | - | - | - |
| 1777230602 | 15° C | 43% | 0 hPa | - | - | - | - |
| 1777230003 | 15° C | 46% | 0 hPa | - | - | - | - |
| 1777229403 | 15° C | 51% | 0 hPa | - | - | - | - |
| 1777228803 | 14.44° C | 54% | 0 hPa | - | - | - | - |
| 1777228204 | 13.89° C | 50% | 0 hPa | - | - | - | - |
* Rain since midnight (hover to see other rain measurements)
** Current wind speed in m/s (hover to see current wind gust speed)